Powrót do katalogu

ONEWEB-0342

AktywnyŁącznośćPO
NORAD 49208·PAYLOAD·🇬🇧 United Kingdom

Wystrzelony Sep 14, 2021 z Baikonur Cosmodrome

Loading…

Następne Przeloty (najbliższe 24 godziny)

TLE

ŚwieżeSource: CelesTrak SupGP

Epoka: Sep 14, 2026, 19:51 UTC

1 49208C 21083Y   26257.82722639  .00002108  00000+0  51901-2 0  2573
2 49208  87.9145 256.5547 0001986  87.1351 309.1190 13.20769831    16

Śledź ONEWEB-0342 w czasie rzeczywistym z AllMySat

Download on the App Store